Change the Weather History Date:

Thursday, August 23, 2012

  Actual Average Record
Temperature  
Mean Temperature 74 °F 66 °F  
Max Temperature 92 °F 79 °F 95 °F (1948)
Min Temperature 56 °F 53 °F 35 °F (1942)
Degree Days  
Heating Degree Days 0 2  
Month to date heating degree days 25 30  
Since 1 June heating degree days 67 161  
Since 1 July heating degree days 25 58  
Cooling Degree Days 9 3  
Month to date cooling degree days 70 100  
Year to date cooling degree days 496 333  
Since 1 June cooling degree days 474 316  
Growing Degree Days 24 (Base 50)    
Moisture  
Dew Point 57 °F    
Average Humidity 60    
Maximum Humidity 90    
Minimum Humidity 30    
Precipitation  
Precipitation 0.00 in 0.09 in 1.13 in (1980)
Month to date precipitation 1.31 2.14  
Year to date precipitation 12.88 14.49  
Snow  
Snow 0.00 in 0.00 in - ()
Month to date snowfall 0.0 0.0  
Since 1 June snowfall 0.0 0.0  
Since 1 July snowfall 0.0 0.0  
Snow Depth 0.00 in    
Sea Level Pressure  
Sea Level Pressure 29.71 in    
Wind  
Wind Speed 4 mph (WSW)    
Max Wind Speed 12 mph    
Max Gust Speed 15 mph    
Visibility 10 miles    
Events      
T = Trace of Precipitation, MM = Missing Value Source: NWS Daily Summary

Daily Weather History Graph

Daily Weather History Graph

Search for Another Location

Airport or City:

Trip Planner

Search our weather history database for the weather conditions in past years. The results will help you decide how hot, cold, wet, or windy it might be!

Date:

Astronomy

Aug. 23, 2012 Rise Set
Actual Time 6:35 AM CDT 8:26 PM CDT
Civil Twilight 6:02 AM CDT 8:59 PM CDT
Nautical Twilight 5:21 AM CDT 9:39 PM CDT
Astronomical Twilight 4:36 AM CDT 10:24 PM CDT
Moon 2:00 PM CDT (8/23) 11:18 PM CDT (8/23)
Length of Visible Light 14h 56m
Length of Day
13h 50m
Waxing Crescent, 40% of the Moon is Illuminated
Aug 23
Waxing Crescent
Aug 24
First Quarter
Aug 31
Full
Sep 8
Last Quarter
Sep 15
New

Hourly Weather History & Observations

Time (CDT) Temp. Heat Index Dew Point Humidity Pressure Visibility Wind Dir Wind Speed Gust Speed Precip Events Conditions
12:53 AM 71.1 °F - 57.9 °F 63% 29.75 in 10.0 mi SE 9.2 mph - N/A   Mostly Cloudy
1:53 AM 66.0 °F - 57.9 °F 75% 29.75 in 10.0 mi SSE 3.5 mph - N/A   Scattered Clouds
2:53 AM 61.0 °F - 55.9 °F 83% 29.74 in 10.0 mi Calm Calm - N/A   Scattered Clouds
3:53 AM 57.9 °F - 54.0 °F 87% 29.74 in 10.0 mi North 3.5 mph - N/A   Partly Cloudy
4:53 AM 57.9 °F - 54.0 °F 87% 29.75 in 10.0 mi Calm Calm - N/A   Scattered Clouds
5:53 AM 59.0 °F - 54.0 °F 83% 29.73 in 10.0 mi Calm Calm - N/A   Partly Cloudy
6:53 AM 57.0 °F - 54.0 °F 89% 29.74 in 10.0 mi Calm Calm - N/A   Partly Cloudy
7:53 AM 61.0 °F - 57.0 °F 87% 29.74 in 10.0 mi Calm Calm - N/A   Partly Cloudy
8:53 AM 68.0 °F - 59.0 °F 73% 29.73 in 10.0 mi SW 3.5 mph - N/A   Partly Cloudy
9:53 AM 73.9 °F - 60.1 °F 62% 29.73 in 10.0 mi West 5.8 mph - N/A   Partly Cloudy
10:53 AM 79.0 °F - 61.0 °F 54% 29.74 in 10.0 mi West 4.6 mph - N/A   Partly Cloudy
11:53 AM 82.0 °F 82.4 °F 60.1 °F 47% 29.73 in 10.0 mi Variable 4.6 mph - N/A   Partly Cloudy
12:53 PM 84.9 °F 84.4 °F 59.0 °F 41% 29.71 in 10.0 mi Calm Calm - N/A   Clear
1:53 PM 86.0 °F 85.0 °F 57.9 °F 38% 29.70 in 10.0 mi Variable 4.6 mph - N/A   Clear
2:53 PM 89.1 °F 88.0 °F 57.9 °F 35% 29.69 in 10.0 mi West 6.9 mph - N/A   Clear
3:53 PM 91.0 °F 88.9 °F 55.0 °F 29% 29.68 in 10.0 mi West 5.8 mph - N/A   Partly Cloudy
4:53 PM 91.0 °F 89.2 °F 55.9 °F 30% 29.68 in 10.0 mi WSW 9.2 mph - N/A   Partly Cloudy
5:53 PM 91.0 °F 88.9 °F 55.0 °F 29% 29.67 in 10.0 mi SW 4.6 mph - N/A   Partly Cloudy
6:53 PM 91.0 °F 88.9 °F 55.0 °F 29% 29.66 in 10.0 mi WSW 6.9 mph - N/A   Partly Cloudy
7:53 PM 88.0 °F 86.5 °F 55.9 °F 34% 29.66 in 10.0 mi Calm Calm - N/A   Partly Cloudy
8:53 PM 78.8 °F - 55.4 °F 44% 29.67 in 10.0 mi South 5.8 mph - N/A   Scattered Clouds
9:53 PM 75.0 °F - 55.9 °F 51% 29.68 in 10.0 mi WSW 6.9 mph - N/A   Partly Cloudy
10:53 PM 69.1 °F - 57.9 °F 68% 29.68 in 10.0 mi West 5.8 mph - N/A   Partly Cloudy
11:53 PM 66.9 °F - 55.0 °F 66% 29.69 in 10.0 mi WSW 8.1 mph - N/A   Clear